[[{"header":{"parameterUnit":"m.s-1","parameterCategory":1,"la1":30.2991,"la2":30.254,"lo1":-89.0895,"lo2":-89.0444,"dx":0.0017,"dy":0.0017,"nx":28,"ny":28,"refTime":"2022-11-07T09:00:00:Z","depth":0,"parameterNumber":2,"parameterNumberName":"U-component_of_WINDS"},"data":[0,0,0,0,0,0,0,0,0,0,0,0,0,0,0,0,0,0,0,0,0,0,0,0,0,0,0,0,0,0,0,0,0,0,0,0,0,0,0,0,0,0,0,0,0,0,0,0,0,0,0,0,0,0,0,0,0,0,-2.2275,-2.2275,0,-2.2254,-2.2253,-2.2253,-2.2178,-2.2177,-2.2175,-2.2173,-2.2153,-2.2154,-2.2155,0,0,0,0,0,0,0,0,0,0,0,0,0,-2.2253,-2.2254,-2.2275,-2.2275,-2.2274,-2.2254,-2.2253,-2.2253,-2.2179,-2.2177,-2.2174,-2.2173,-2.2153,-2.2154,-2.2155,0,0,0,0,0,0,0,0,0,0,0,0,0,-2.225,-2.2254,-2.2275,-2.2235,-2.2231,-2.2254,-2.2253,-2.2253,-2.2179,-2.2176,-2.2174,-2.2172,-2.2152,-2.2154,-2.2155,-2.2216,0,0,-2.216,-2.2161,0,0,0,0,0,0,0,0,-2.2251,-2.2251,-2.2241,-2.2237,-2.2233,-2.2216,-2.2238,-2.2241,-2.218,-2.2199,-2.2173,-2.217,-2.2176,-2.2176,-2.2177,-2.2215,-2.2214,-2.216,-2.2161,-2.2162,-2.2162,0,0,0,0,0,0,0,-2.2251,-2.2252,-2.2266,-2.2241,-2.2236,-2.2218,-2.2215,-2.2238,-2.2202,-2.2197,-2.2191,-2.219,-2.2174,-2.2176,-2.2176,-2.2214,-2.216,-2.2162,-2.2162,-2.2163,-2.2302,-2.2304,0,0,0,0,0,0,-2.2257,-2.2252,-2.2267,-2.2266,-2.2236,-2.2221,-2.2217,-2.2224,-2.2201,-2.2196,-2.2192,-2.2186,-2.2174,-2.2174,-2.2175,-2.2246,-2.2162,-2.2163,-2.2164,-2.2299,-2.2302,-2.2305,0,0,0,0,0,0,-2.2256,-2.2259,-2.2268,-2.2258,-2.2257,-2.2224,-2.2232,-2.2225,-2.2227,-2.2198,-2.2191,-2.2201,-2.2172,-2.2173,-2.2207,-2.2244,-2.2164,-2.2165,-2.2296,-2.23,-2.2304,-2.2387,0,0,0,0,0,0,-2.2256,-2.2259,-2.2281,-2.2259,-2.2258,-2.2299,-2.2234,-2.2226,-2.223,-2.2222,-2.2204,-2.2199,-2.217,-2.2205,-2.2208,-2.2245,-2.2167,-2.2292,-2.2298,-2.2303,-2.238,-2.2393,-2.2404,0,0,0,0,0,-2.2256,-2.2305,-2.2282,-2.2285,-2.2285,-2.2301,-2.2301,-2.2267,-2.2233,-2.2256,-2.2237,-2.22,-2.2239,-2.2209,-2.2212,-2.225,-2.229,-2.2296,-2.2302,-2.2375,-2.2391,-2.2404,0,0,0,0,0,0,-2.2332,-2.2301,-2.2276,-2.2319,-2.2314,-2.2289,-2.2316,-2.2284,-2.2288,-2.2281,-2.2239,-2.2236,-2.2276,-2.2266,-2.2232,-2.2308,-2.2258,-2.2266,-2.2313,-2.2327,-2.2339,-2.2341,-2.2168,0,0,0,0,0,-2.2355,-2.237,-2.2342,-2.2383,-2.2382,-2.235,-2.2355,-2.233,-2.2322,-2.2319,-2.2303,-2.2298,-2.2309,-2.2318,-2.2326,-2.2379,-2.2375,-2.2406,-2.2418,-2.2428,-2.2435,-2.2463,-2.2478,-2.2326,-2.2326,-2.2326,0,0,-2.24,-2.2385,-2.2397,-2.2398,-2.2391,-2.2409,-2.2348,-2.2369,-2.2382,-2.2323,-2.2354,-2.2342,-2.2333,-2.2377,-2.2396,-2.237,-2.2476,-2.2436,-2.2444,-2.2445,-2.2471,-2.2486,-2.2498,-2.233,-2.2329,-2.2329,0,0,-2.2492,-2.2482,-2.2516,-2.251,-2.25,-2.2478,-2.2487,-2.2467,-2.2457,-2.2487,-2.2443,-2.2459,-2.2479,-2.2475,-2.2476,-2.2569,-2.2535,-2.2573,-2.2634,-2.2663,-2.2675,-2.2685,-2.272,-2.2733,-2.258,-2.258,-2.258,0,-2.2551,-2.2575,-2.2537,-2.2562,-2.2564,-2.2512,-2.2546,-2.2542,-2.2536,-2.2539,-2.2511,-2.2536,-2.2526,-2.2569,-2.2592,-2.2594,-2.2603,-2.2575,-2.2676,-2.2686,-2.2695,-2.2728,-2.2741,-2.2585,-2.2584,-2.2584,-2.2583,0,-2.2648,-2.2666,-2.2694,-2.269,-2.2695,-2.2725,-2.2693,-2.2703,-2.2677,-2.2659,-2.2692,-2.2679,-2.2685,-2.2693,-2.2668,-2.2733,-2.2718,-2.2684,-2.2633,-2.2715,-2.2745,-2.2757,-2.2592,-2.259,-2.2588,-2.2587,0,0,-2.2787,-2.2762,-2.2773,-2.2771,-2.2757,-2.277,-2.2798,-2.2804,-2.2814,-2.2812,-2.2835,-2.2854,-2.2823,-2.2824,-2.2798,-2.2823,-2.2899,-2.2785,-2.2785,-2.2808,-2.2972,-2.2999,-2.3014,-2.2877,-2.2879,-2.2881,-2.2973,0,-2.2876,-2.2921,-2.2889,-2.2941,-2.2958,-2.2909,-2.2933,-2.2928,-2.2912,-2.2925,-2.2908,-2.2923,-2.2879,-2.288,-2.2902,-2.2885,-2.2932,-2.2878,-2.2899,-2.29,-2.2904,-2.3029,-2.3057,-2.3145,-2.2985,-2.2987,-2.2988,0,-2.2985,-2.2988,-2.3041,-2.3025,-2.3031,-2.3053,-2.3057,-2.3069,-2.3063,-2.305,-2.3052,-2.302,-2.3048,-2.2998,-2.3036,-2.3001,-2.3007,-2.3001,-2.3003,-2.3004,-2.295,-2.3035,-2.3172,-2.3186,-2.3006,-2.3004,-2.3003,0,-2.3083,-2.31,-2.3134,-2.3134,-2.3116,-2.3133,-2.3126,-2.3117,-2.3123,-2.3126,-2.313,-2.3137,-2.3141,-2.3147,-2.3119,-2.3085,-2.3161,-2.3109,-2.3153,-2.3154,-2.3171,-2.317,-2.3312,-2.3174,-2.3174,-2.3174,-2.3174,0,-2.3185,-2.322,-2.3178,-2.32,-2.3238,-2.3201,-2.3241,-2.3229,-2.3221,-2.324,-2.3198,-2.3217,-2.3178,-2.3193,-2.3171,-2.3207,-2.3209,-2.32,-2.3194,-2.3205,-2.3206,-2.3209,-2.3203,-2.3177,-2.3177,-2.3176,-2.3175,0,-2.3301,-2.3274,-2.3309,-2.3289,-2.3285,-2.3314,-2.3298,-2.3317,-2.3299,-2.3324,-2.3328,-2.33,-2.3316,-2.3288,-2.3301,-2.3286,-2.3337,-2.332,-2.3339,-2.3335,-2.338,-2.3377,-2.353,-2.3549,-2.3398,-2.3399,-2.34,0,-2.3368,-2.3394,-2.3378,-2.3387,-2.3383,-2.3399,-2.3406,-2.3371,-2.338,-2.3375,-2.3396,-2.3408,-2.3417,-2.3445,-2.3426,-2.3436,-2.3421,-2.3474,-2.3422,-2.3432,-2.3423,-2.3422,-2.3426,-2.3485,-2.3486,-2.3488,-2.3489,0,-2.3492,-2.3478,-2.3488,-2.3495,-2.3504,-2.3507,-2.3508,-2.3519,-2.3482,-2.3494,-2.351,-2.3517,-2.353,-2.3544,-2.3549,-2.3543,-2.3511,-2.3505,-2.3516,-2.3528,-2.3538,-2.3534,-2.3369,-2.3502,-2.3501,-2.35,-2.3499,-2.3499,-2.3586,-2.3608,-2.36,-2.3614,-2.3611,-2.3613,-2.3631,-2.3615,-2.3628,-2.3636,-2.3615,-2.3637,-2.3631,-2.3635,-2.3633,-2.365,-2.3627,-2.3642,-2.3646,-2.3651,-2.3659,-2.3535,-2.3651,-2.365,-2.365,-2.365,-2.3649,0,-2.3708,-2.3701,-2.3714,-2.3717,-2.3728,-2.3697,-2.3696,-2.3708,-2.3728,-2.3725,-2.3734,-2.3754,-2.3767,-2.3751,-2.3761,-2.3778,-2.3764,-2.3782,-2.3781,-2.3781,-2.3678,-2.3668,-2.3794,-2.3794,-2.3794,-2.3794,-2.3794,-2.3794,-2.3773,-2.3809,-2.3794,-2.3828,-2.3821,-2.3842,-2.3844,-2.3847,-2.3844,-2.3868,-2.3879,-2.3868,-2.386,-2.387,-2.3882,-2.3877,-2.3883,-2.3907,-2.3897,-2.3802,-2.3788,-2.3774,-2.3765,-2.3909,-2.3909,-2.3999,-2.3999,-2.4]},{"header":{"parameterUnit":"m.s-1","parameterCategory":1,"la1":30.2991,"la2":30.254,"lo1":-89.0895,"lo2":-89.0444,"dx":0.0017,"dy":0.0017,"nx":28,"ny":28,"refTime":"2022-11-07T09:00:00:Z","depth":0,"parameterNumber":3,"parameterNumberName":"V-component_of_WINDS"},"data":[0,0,0,0,0,0,0,0,0,0,0,0,0,0,0,0,0,0,0,0,0,0,0,0,0,0,0,0,0,0,0,0,0,0,0,0,0,0,0,0,0,0,0,0,0,0,0,0,0,0,0,0,0,0,0,0,0,0,-0.1884,-0.1884,0,-0.1905,-0.1905,-0.1905,-0.1883,-0.1882,-0.1881,-0.188,-0.1906,-0.1908,-0.1909,0,0,0,0,0,0,0,0,0,0,0,0,0,-0.1829,-0.183,-0.1884,-0.1884,-0.1885,-0.1905,-0.1905,-0.1905,-0.1883,-0.1882,-0.1881,-0.188,-0.1906,-0.1908,-0.1909,0,0,0,0,0,0,0,0,0,0,0,0,0,-0.1852,-0.1831,-0.1884,-0.1876,-0.1875,-0.1905,-0.1905,-0.1905,-0.1883,-0.1882,-0.1881,-0.188,-0.1905,-0.1907,-0.191,-0.195,0,0,-0.1917,-0.1918,0,0,0,0,0,0,0,0,-0.1851,-0.1854,-0.1877,-0.1877,-0.1876,-0.189,-0.1895,-0.192,-0.1884,-0.1881,-0.188,-0.1879,-0.1902,-0.1905,-0.1912,-0.1951,-0.1952,-0.1917,-0.1918,-0.1919,-0.192,0,0,0,0,0,0,0,-0.1849,-0.1853,-0.1892,-0.1877,-0.1877,-0.1872,-0.1874,-0.19,-0.1899,-0.1881,-0.1879,-0.1882,-0.1902,-0.1909,-0.1912,-0.1952,-0.1917,-0.1919,-0.192,-0.1921,-0.2024,-0.2026,0,0,0,0,0,0,-0.1848,-0.1852,-0.1892,-0.1893,-0.186,-0.1874,-0.1876,-0.1887,-0.1898,-0.1899,-0.1883,-0.188,-0.1906,-0.1909,-0.1913,-0.196,-0.1919,-0.1921,-0.1922,-0.2023,-0.2025,-0.2026,0,0,0,0,0,0,-0.1847,-0.1852,-0.1891,-0.1872,-0.1877,-0.1877,-0.1889,-0.1888,-0.1895,-0.19,-0.19,-0.189,-0.1905,-0.191,-0.194,-0.1961,-0.1922,-0.1924,-0.2021,-0.2023,-0.2025,-0.2055,0,0,0,0,0,0,-0.1845,-0.1851,-0.1866,-0.1872,-0.1878,-0.1917,-0.189,-0.1889,-0.1899,-0.1896,-0.1907,-0.1908,-0.1905,-0.1937,-0.1942,-0.1963,-0.1926,-0.202,-0.2022,-0.2025,-0.2052,-0.2058,-0.2062,0,0,0,0,0,-0.1843,-0.1875,-0.1867,-0.1872,-0.1896,-0.1918,-0.1921,-0.1916,-0.1901,-0.1916,-0.1918,-0.1907,-0.1957,-0.194,-0.1946,-0.1968,-0.2018,-0.2022,-0.2025,-0.205,-0.2057,-0.2062,0,0,0,0,0,0,-0.1873,-0.1876,-0.1867,-0.1901,-0.1909,-0.1914,-0.1933,-0.1924,-0.1938,-0.1935,-0.1929,-0.1932,-0.1964,-0.1969,-0.195,-0.2006,-0.1985,-0.199,-0.2002,-0.2009,-0.2014,-0.2013,-0.1928,0,0,0,0,0,-0.1883,-0.19,-0.1902,-0.1932,-0.1936,-0.1934,-0.1944,-0.1938,-0.1947,-0.1951,-0.1956,-0.1967,-0.1985,-0.1997,-0.2014,-0.2052,-0.2054,-0.207,-0.2075,-0.2079,-0.2084,-0.2104,-0.2111,-0.2037,-0.2036,-0.2036,0,0,-0.1905,-0.1908,-0.192,-0.1937,-0.1943,-0.1962,-0.1937,-0.1958,-0.1972,-0.1955,-0.1984,-0.1987,-0.1999,-0.2033,-0.2049,-0.2038,-0.2104,-0.2083,-0.2087,-0.2089,-0.2108,-0.2115,-0.2122,-0.2039,-0.2038,-0.2038,0,0,-0.1954,-0.1958,-0.1983,-0.1989,-0.1997,-0.1995,-0.2001,-0.2007,-0.2008,-0.2036,-0.2024,-0.2041,-0.2072,-0.208,-0.2089,-0.2138,-0.2129,-0.2144,-0.2172,-0.2192,-0.2198,-0.2203,-0.2222,-0.2228,-0.2148,-0.2148,-0.2148,0,-0.1981,-0.2007,-0.1998,-0.2019,-0.2027,-0.201,-0.2036,-0.2042,-0.2057,-0.2063,-0.2051,-0.2088,-0.2095,-0.2131,-0.2142,-0.215,-0.2157,-0.2144,-0.2198,-0.2203,-0.2207,-0.2225,-0.2232,-0.215,-0.215,-0.215,-0.215,0,-0.204,-0.2058,-0.2077,-0.2089,-0.2099,-0.2123,-0.2118,-0.2129,-0.2123,-0.2122,-0.2151,-0.2157,-0.2175,-0.2183,-0.2177,-0.2218,-0.2211,-0.2198,-0.2177,-0.2217,-0.2233,-0.224,-0.2153,-0.2152,-0.2151,-0.2151,0,0,-0.2111,-0.2115,-0.2122,-0.2127,-0.2134,-0.2148,-0.2171,-0.2186,-0.2196,-0.2206,-0.2226,-0.2251,-0.2238,-0.2248,-0.2243,-0.226,-0.23,-0.2245,-0.2245,-0.2256,-0.2345,-0.2356,-0.2364,-0.2293,-0.2294,-0.2295,-0.2344,0,-0.2161,-0.2198,-0.2189,-0.2227,-0.2244,-0.2226,-0.2246,-0.2253,-0.2253,-0.2268,-0.2268,-0.2286,-0.2268,-0.2273,-0.2289,-0.2291,-0.2318,-0.2287,-0.2312,-0.2313,-0.2311,-0.2372,-0.2384,-0.243,-0.2351,-0.2352,-0.2352,0,-0.2224,-0.2234,-0.2273,-0.2276,-0.2282,-0.23,-0.2313,-0.2327,-0.2334,-0.2333,-0.2342,-0.2333,-0.2356,-0.2333,-0.2365,-0.2345,-0.2354,-0.2357,-0.2358,-0.2362,-0.2336,-0.2378,-0.2445,-0.2452,-0.2362,-0.2362,-0.2361,0,-0.2273,-0.2296,-0.2322,-0.2326,-0.233,-0.2343,-0.2345,-0.2351,-0.236,-0.2371,-0.2377,-0.2392,-0.24,-0.2412,-0.2408,-0.2391,-0.2441,-0.2418,-0.2442,-0.2442,-0.2455,-0.2454,-0.2525,-0.2458,-0.2458,-0.2458,-0.2458,0,-0.233,-0.2355,-0.2344,-0.236,-0.2387,-0.2376,-0.2404,-0.2404,-0.2409,-0.2426,-0.2412,-0.2428,-0.242,-0.2436,-0.2433,-0.246,-0.2464,-0.2465,-0.2464,-0.2467,-0.2467,-0.2474,-0.2471,-0.246,-0.246,-0.2459,-0.2459,0,-0.239,-0.2383,-0.2411,-0.2411,-0.2411,-0.2431,-0.2432,-0.2448,-0.2445,-0.2466,-0.2471,-0.2468,-0.2485,-0.2481,-0.2502,-0.2499,-0.2534,-0.2529,-0.2531,-0.253,-0.2555,-0.2553,-0.2634,-0.2644,-0.257,-0.2571,-0.2571,0,-0.2428,-0.2446,-0.2448,-0.2457,-0.246,-0.2475,-0.2483,-0.2473,-0.2483,-0.2492,-0.2506,-0.2522,-0.2535,-0.2564,-0.2565,-0.258,-0.2575,-0.2602,-0.2578,-0.258,-0.2577,-0.2576,-0.2578,-0.2608,-0.2609,-0.261,-0.261,0,-0.2496,-0.2491,-0.2503,-0.2514,-0.2524,-0.2532,-0.2539,-0.2548,-0.2538,-0.255,-0.2567,-0.2576,-0.2595,-0.2612,-0.2626,-0.2629,-0.2619,-0.2617,-0.2624,-0.2628,-0.2629,-0.263,-0.2546,-0.2616,-0.2616,-0.2615,-0.2615,-0.2615,-0.2547,-0.2562,-0.2565,-0.2579,-0.2582,-0.2589,-0.2603,-0.2601,-0.2614,-0.2628,-0.2621,-0.2641,-0.2647,-0.2663,-0.2669,-0.2685,-0.2675,-0.2684,-0.2687,-0.269,-0.2693,-0.2625,-0.2687,-0.2687,-0.2687,-0.2687,-0.2686,0,-0.2615,-0.2615,-0.2628,-0.2637,-0.2648,-0.2634,-0.264,-0.2651,-0.2668,-0.2673,-0.2685,-0.2704,-0.2719,-0.272,-0.2734,-0.2747,-0.2743,-0.2752,-0.2751,-0.2753,-0.2701,-0.2694,-0.2755,-0.2755,-0.2755,-0.2755,-0.2755,-0.2755,-0.2652,-0.2676,-0.2672,-0.2698,-0.2698,-0.2716,-0.2721,-0.2727,-0.2731,-0.2752,-0.2764,-0.2764,-0.2767,-0.2782,-0.2795,-0.2795,-0.2802,-0.2813,-0.2811,-0.2763,-0.2756,-0.275,-0.2743,-0.2814,-0.2814,-0.2862,-0.2862,-0.2863]}]]